Location: Moscow
(55.7500°N, 37.5830°E)
Time: 14:41:34
(UTC+03:00)

Vanguard 1 - Pass Details

Date: 09 December 2021
Orbit: 652 x 3830 km, 34.2° (Epoch: 25 January)

Event Time Altitude Azimuth Distance (km) Brightness Sun altitude
Rises 22:39:35 0° 216° (SW) 6,646 14.2 -52.1°
Enters shadow 22:42:45 - 210° (SSW) 6,207 14.0 -52.4°
Exits shadow 23:23:23 - 96° (E) 7,323 14.3 -55.4°
Sets 23:24:50 0° 94° (E) 7,530 14.4 -55.5°
